Location: Unspecified
(49.8350°N, 0.0000°E)
Time: 05:11:12
(UTC+00:00)

Cosmos 2227 Rocket - Visible Passes

Search period start: 04 April 2026 00:00
Search period end: 14 April 2026 00:00
Orbit: 836 x 845 km, 71.0° (Epoch: 29 March)

Date Brightness Start Highest point End Pass type
(mag) Time Alt. Az. Time Alt. Az. Time Alt. Az.
4 Apr 5.2 20:11:44 10° WNW 20:13:19 11° W 20:14:54 10° WSW visible
5 Apr 5.1 19:55:59 10° WNW 19:58:00 12° W 20:00:01 10° WSW visible
6 Apr 5.1 19:40:19 10° WNW 19:42:41 13° W 19:45:03 10° WSW visible
7 Apr 5.1 19:24:43 10° WNW 19:27:23 14° W 19:30:02 10° SW visible
